Weather History for Indianapolis, IN

Change the Weather History Date:

Friday, January 4, 2013

  Actual Average (KEYE) Record (KEYE)
Temperature  
Mean Temperature 22 °F 28 °F  
Max Temperature 28 °F 35 °F 64 °F (1998)
Min Temperature 16 °F 21 °F -5 °F (1999)
Degree Days  
Heating Degree Days 43 37  
Month to date heating degree days 148  
Since 1 July heating degree days 2204  
Cooling Degree Days 0 0  
Month to date cooling degree days 0  
Year to date cooling degree days 0  
Moisture  
Dew Point 14 °F    
Average Humidity 71    
Maximum Humidity 81    
Minimum Humidity 62    
Precipitation  
Precipitation 0.00 in 0.11 in 1.72 in (2004)
Month to date precipitation 0.43  
Year to date precipitation 0.43  
Sea Level Pressure  
Sea Level Pressure 30.29 in    
Wind  
Wind Speed 9 mph (WSW)    
Max Wind Speed 20 mph    
Max Gust Speed 24 mph    
Visibility 10 miles    
Events      
T = Trace of Precipitation, MM = Missing Value Source: NWS Daily Summary

Daily Weather History Graph

Daily Weather History Graph

Search for Another Location

Airport:

Trip Planner

Search our weather history database for the weather conditions in past years. The results will help you decide how hot, cold, wet, or windy it might be!

Date:

Astronomy

Jan. 04, 2013 Rise Set
Actual Time 8:07 AM EST 5:33 PM EST
Civil Twilight 7:36 AM EST 6:03 PM EST
Nautical Twilight 7:03 AM EST 6:37 PM EST
Astronomical Twilight 6:30 AM EST 7:10 PM EST
Moon 12:07 AM EST (1/4) 11:49 AM EST (1/4)
Length of Visible Light 10h 26m
Length of Day
9h 26m
Waning Gibbous, 55% of the Moon is Illuminated
Jan 4
Waning Gibbous
Jan 4
Last Quarter
Jan 11
New
Jan 18
First Quarter
Jan 26
Full

Hourly Weather History & Observations

Time (EST) Temp. Windchill Dew Point Humidity Pressure Visibility Wind Dir Wind Speed Gust Speed Precip Events Conditions
12:15 AM 23.2 °F 17.2 °F 16.3 °F 75% 30.29 in 10.0 mi West 4.6 mph - N/A   Scattered Clouds
12:35 AM 22.6 °F 15.3 °F 16.0 °F 76% 30.30 in 10.0 mi West 5.8 mph - N/A   Clear
12:55 AM 21.9 °F 12.5 °F 15.4 °F 76% 30.30 in 10.0 mi West 8.1 mph - N/A   Clear
1:15 AM 21.6 °F 13.0 °F 14.4 °F 74% 30.29 in 10.0 mi West 6.9 mph - N/A   Clear
1:35 AM 20.8 °F 12.1 °F 13.5 °F 73% 30.28 in 10.0 mi WSW 6.9 mph - N/A   Clear
1:55 AM 19.9 °F 11.1 °F 13.3 °F 75% 30.28 in 10.0 mi WSW 6.9 mph - N/A   Clear
2:15 AM 19.9 °F 11.1 °F 13.5 °F 76% 30.28 in 10.0 mi West 6.9 mph - N/A   Clear
2:35 AM 19.4 °F 10.4 °F 13.1 °F 76% 30.29 in 10.0 mi WSW 6.9 mph - N/A   Clear
2:55 AM 19.0 °F 10.0 °F 12.7 °F 76% 30.29 in 10.0 mi WSW 6.9 mph - N/A   Clear
3:15 AM 16.5 °F 8.1 °F 10.6 °F 77% 30.29 in 10.0 mi WSW 5.8 mph - N/A   Clear
3:55 AM 17.6 °F 9.3 °F 12.7 °F 81% 30.29 in 10.0 mi WSW 5.8 mph - N/A   Clear
4:15 AM 17.2 °F 8.9 °F 12.4 °F 81% 30.29 in 10.0 mi West 5.8 mph - N/A   Clear
6:55 AM 17.4 °F 7.1 °F 12.0 °F 79% 30.29 in 10.0 mi WSW 8.1 mph - N/A   Clear
7:15 AM 17.6 °F 6.4 °F 12.4 °F 80% 30.29 in 10.0 mi WSW 9.2 mph - N/A   Clear
7:35 AM 17.1 °F 5.8 °F 11.7 °F 79% 30.29 in 10.0 mi WSW 9.2 mph - N/A   Clear
7:55 AM 17.2 °F 6.8 °F 11.7 °F 79% 30.29 in 10.0 mi WSW 8.1 mph - N/A   Clear
8:15 AM 16.5 °F 5.1 °F 11.1 °F 79% 30.30 in 10.0 mi WSW 9.2 mph - N/A   Clear
8:35 AM 17.2 °F 6.8 °F 11.1 °F 77% 30.30 in 10.0 mi WSW 8.1 mph - N/A   Clear
8:55 AM 17.1 °F 4.3 °F 10.4 °F 75% 30.31 in 10.0 mi WSW 11.5 mph - N/A   Clear
9:15 AM 17.6 °F 5.7 °F 10.4 °F 73% 30.31 in 10.0 mi West 10.4 mph - N/A   Clear
9:35 AM 18.3 °F 6.6 °F 10.2 °F 71% 30.32 in 10.0 mi West 10.4 mph 17.3 mph N/A   Clear
9:55 AM 18.3 °F 5.9 °F 9.5 °F 68% 30.32 in 10.0 mi West 11.5 mph 17.3 mph N/A   Clear
10:15 AM 18.7 °F 7.0 °F 9.3 °F 67% 30.33 in 10.0 mi WSW 10.4 mph - N/A   Clear
10:35 AM 19.6 °F 6.8 °F 9.9 °F 66% 30.32 in 10.0 mi WSW 12.7 mph - N/A   Clear
10:55 AM 20.3 °F 7.2 °F 10.4 °F 66% 30.32 in 10.0 mi WSW 13.8 mph - N/A   Clear
11:15 AM 20.8 °F 7.3 °F 10.8 °F 65% 30.33 in 10.0 mi WSW 15.0 mph 19.6 mph N/A   Clear
11:35 AM 21.2 °F 7.3 °F 10.9 °F 65% 30.32 in 10.0 mi WSW 16.1 mph 23.0 mph N/A   Clear
11:55 AM 22.1 °F 9.5 °F 11.5 °F 64% 30.32 in 10.0 mi WSW 13.8 mph - N/A   Clear
12:15 PM 22.5 °F 10.5 °F 12.0 °F 64% 30.33 in 10.0 mi West 12.7 mph - N/A   Clear
12:35 PM 22.6 °F 9.6 °F 12.2 °F 64% 30.32 in 10.0 mi WSW 15.0 mph - N/A   Clear
12:55 PM 23.4 °F 11.1 °F 12.7 °F 64% 30.31 in 10.0 mi WSW 13.8 mph - N/A   Clear
1:15 PM 23.9 °F 11.2 °F 13.6 °F 65% 30.30 in 10.0 mi SW 15.0 mph 21.9 mph N/A   Clear
1:55 PM 25.0 °F 12.2 °F 14.0 °F 63% 30.29 in 10.0 mi WSW 16.1 mph 21.9 mph N/A   Clear
2:15 PM 25.7 °F 11.9 °F 14.9 °F 64% 30.28 in 10.0 mi WSW 19.6 mph 23.0 mph N/A   Clear
2:35 PM 26.6 °F 14.3 °F 15.8 °F 64% 30.28 in 10.0 mi WSW 16.1 mph 24.2 mph N/A   Clear
2:55 PM 27.5 °F 16.3 °F 16.5 °F 63% 30.28 in 10.0 mi SW 13.8 mph 21.9 mph N/A   Clear
3:15 PM 28.2 °F 17.2 °F 16.7 °F 62% 30.28 in 10.0 mi WSW 13.8 mph 21.9 mph N/A   Clear
3:35 PM 28.6 °F 17.7 °F 17.4 °F 63% 30.28 in 10.0 mi WSW 13.8 mph 21.9 mph N/A   Clear
3:55 PM 28.8 °F 17.5 °F 17.6 °F 63% 30.28 in 10.0 mi WSW 15.0 mph - N/A   Clear
4:15 PM 28.9 °F 18.6 °F 18.0 °F 64% 30.28 in 10.0 mi SW 12.7 mph - N/A   Clear
4:35 PM 28.4 °F 19.1 °F 17.6 °F 64% 30.28 in 10.0 mi WSW 10.4 mph - N/A   Clear
4:55 PM 28.6 °F 18.2 °F 17.6 °F 64% 30.28 in 10.0 mi SW 12.7 mph - N/A   Clear
5:15 PM 27.9 °F 17.8 °F 17.6 °F 65% 30.29 in 10.0 mi SW 11.5 mph - N/A   Clear
5:35 PM 27.3 °F 17.1 °F 17.4 °F 66% 30.28 in 10.0 mi SW 11.5 mph - N/A   Clear
5:55 PM 26.8 °F 16.5 °F 16.9 °F 66% 30.28 in 10.0 mi SW 11.5 mph - N/A   Clear
6:15 PM 26.2 °F 16.4 °F 16.7 °F 67% 30.28 in 10.0 mi SW 10.4 mph - N/A   Clear
6:35 PM 26.4 °F 16.0 °F 16.9 °F 67% 30.28 in 10.0 mi SSW 11.5 mph - N/A   Clear
6:55 PM 26.6 °F 15.7 °F 17.2 °F 68% 30.28 in 10.0 mi SW 12.7 mph - N/A   Clear
7:15 PM 26.2 °F 14.7 °F 17.2 °F 69% 30.28 in 10.0 mi SW 13.8 mph - N/A   Clear
7:55 PM 26.1 °F 15.0 °F 17.2 °F 69% 30.29 in 10.0 mi SW 12.7 mph - N/A   Clear
8:15 PM 25.7 °F 15.1 °F 17.2 °F 70% 30.29 in 10.0 mi SW 11.5 mph - N/A   Clear
8:35 PM 25.5 °F 14.3 °F 17.1 °F 70% 30.29 in 10.0 mi SW 12.7 mph - N/A   Clear
8:55 PM 25.7 °F 15.1 °F 17.6 °F 71% 30.29 in 10.0 mi SW 11.5 mph 18.4 mph N/A   Clear
9:15 PM 26.1 °F 16.2 °F 17.8 °F 71% 30.28 in 10.0 mi SW 10.4 mph - N/A   Clear
9:35 PM 25.7 °F 15.7 °F 17.6 °F 71% 30.29 in 10.0 mi SW 10.4 mph - N/A   Clear
9:55 PM 24.6 °F 14.4 °F 17.2 °F 74% 30.29 in 10.0 mi SW 10.4 mph - N/A   Clear
10:15 PM 23.5 °F 14.5 °F 16.7 °F 75% 30.29 in 10.0 mi SW 8.1 mph - N/A   Clear
10:35 PM 23.0 °F 13.1 °F 16.5 °F 76% 30.29 in 10.0 mi SW 9.2 mph - N/A   Clear
10:55 PM 22.8 °F 14.5 °F 16.5 °F 77% 30.30 in 10.0 mi SSW 6.9 mph - N/A   Clear
11:15 PM 22.3 °F 13.9 °F 16.2 °F 77% 30.30 in 10.0 mi SW 6.9 mph - N/A   Clear
11:35 PM 22.1 °F 12.8 °F 16.2 °F 78% 30.31 in 10.0 mi SW 8.1 mph - N/A   Clear
11:55 PM 22.1 °F 13.7 °F 16.5 °F 79% 30.30 in 10.0 mi SW 6.9 mph - N/A   Clear